[[[{"header":{"parameterUnit":"kt","parameterCategory":2,"dx":1,"dy":1,"la1":30.253999710083008,"la2":30.299108505249023,"lo1":-89.0895004272461,"lo2":-89.04439544677734,"nx":28,"ny":28,"refTime":"2022-10-22T21:00:00:Z","depth":"0","parameterNumber":2,"parameterNumberName":"U-component_of_CURRENTS"},"data":[-0.397,-0.3829,-0.3786,-0.3521,-0.3485,-0.3251,-0.3154,-0.3001,-0.293,-0.2684,-0.2631,-0.2653,-0.2771,-0.3069,-0.2969,-0.2826,-0.28,-0.2675,-0.2748,-0.2942,-0.2982,-0.302,-0.3081,-0.2646,-0.2646,-0.2453,-0.2452,-0.2452,-0.412,-0.4084,-0.4037,-0.3984,-0.3883,-0.3995,-0.3964,-0.3817,-0.3632,-0.363,-0.3494,-0.3367,-0.3178,-0.3171,-0.3055,-0.2931,-0.2878,-0.2874,-0.2923,-0.287,-0.3052,-0.3101,-0.2663,-0.2663,-0.2663,-0.2663,-0.2663,-0.2663,-0.4385,-0.4333,-0.4355,-0.431,-0.4346,-0.4308,-0.4208,-0.4286,-0.4215,-0.4097,-0.4193,-0.3965,-0.388,-0.3578,-0.3464,-0.3288,-0.3374,-0.3216,-0.3287,-0.3337,-0.3294,-0.3546,-0.3151,-0.3153,-0.3155,-0.3157,-0.3158,0,-0.4589,-0.4612,-0.4631,-0.4646,-0.4671,-0.4674,-0.4729,-0.4721,-0.4845,-0.481,-0.4683,-0.457,-0.4333,-0.4049,-0.3853,-0.371,-0.3782,-0.3715,-0.3757,-0.3644,-0.3677,-0.3552,-0.3902,-0.3565,-0.357,-0.3574,-0.3576,-0.3578,-0.4752,-0.4789,-0.4896,-0.4903,-0.4953,-0.4996,-0.5017,-0.516,-0.516,-0.5161,-0.5087,-0.4958,-0.4793,-0.4463,-0.4321,-0.409,-0.4152,-0.3833,-0.3946,-0.3975,-0.3993,-0.4052,-0.399,-0.363,-0.3624,-0.3618,-0.3614,0,-0.4801,-0.4955,-0.501,-0.5165,-0.5199,-0.5195,-0.5271,-0.5272,-0.5366,-0.5291,-0.529,-0.5276,-0.508,-0.4996,-0.4763,-0.4682,-0.4401,-0.4388,-0.4249,-0.4163,-0.403,-0.4101,-0.3825,-0.372,-0.408,-0.4076,-0.4072,0,-0.4945,-0.4984,-0.5171,-0.5206,-0.5235,-0.5377,-0.5378,-0.5438,-0.5485,-0.5433,-0.5514,-0.5421,-0.5364,-0.5202,-0.5112,-0.4837,-0.4838,-0.4726,-0.4646,-0.4532,-0.4515,-0.4446,-0.4506,-0.4776,-0.4779,-0.4782,-0.4784,0,-0.4962,-0.5117,-0.5203,-0.5247,-0.5395,-0.5431,-0.5482,-0.5554,-0.5566,-0.559,-0.5554,-0.5512,-0.5425,-0.5313,-0.5187,-0.5238,-0.4928,-0.4955,-0.475,-0.4739,-0.4507,-0.4482,-0.4346,-0.4788,-0.4788,-0.4789,-0.4791,0,-0.504,-0.5137,-0.5253,-0.5361,-0.5391,-0.5441,-0.5512,-0.5568,-0.5603,-0.5613,-0.5594,-0.5567,-0.5532,-0.5536,-0.5345,-0.5424,-0.53,-0.5218,-0.5201,-0.5086,-0.5027,-0.4579,-0.446,-0.4474,-0.4974,-0.4977,-0.4979,0,-0.5026,-0.5168,-0.524,-0.5321,-0.5398,-0.5457,-0.5531,-0.5583,-0.5606,-0.5601,-0.5596,-0.5587,-0.5616,-0.5591,-0.5555,-0.5457,-0.5375,-0.5518,-0.5157,-0.5145,-0.506,-0.5015,-0.4848,-0.4522,-0.5017,-0.5013,-0.501,0,-0.5012,-0.5179,-0.5178,-0.5236,-0.5351,-0.5373,-0.5469,-0.5532,-0.5546,-0.5569,-0.5558,-0.5625,-0.5571,-0.5578,-0.557,-0.5528,-0.5426,-0.5477,-0.547,-0.5315,-0.515,-0.5073,-0.5039,-0.5394,-0.5392,-0.539,-0.504,0,-0.5111,-0.5153,-0.5175,-0.5285,-0.5325,-0.5354,-0.5427,-0.5458,-0.5467,-0.5479,-0.5492,-0.5486,-0.5472,-0.5504,-0.5517,-0.5509,-0.5431,-0.5423,-0.5365,-0.5397,-0.5237,-0.5215,-0.5461,-0.5459,-0.5458,-0.5457,0,0,-0.5076,-0.5124,-0.5162,-0.5235,-0.5263,-0.5277,-0.533,-0.5366,-0.5384,-0.5389,-0.5376,-0.5381,-0.5389,-0.5418,-0.5466,-0.5457,-0.5357,-0.5448,-0.5404,-0.5399,-0.5393,-0.5244,-0.5223,-0.5454,-0.5454,-0.5453,-0.5453,0,-0.5111,-0.5116,-0.5158,-0.5199,-0.5248,-0.5272,-0.528,-0.531,-0.5326,-0.5356,-0.5339,-0.5339,-0.5354,-0.5365,-0.5372,-0.5435,-0.5326,-0.5444,-0.5494,-0.5395,-0.5392,-0.5389,-0.5242,-0.5224,-0.545,-0.545,-0.545,0,-0.5136,-0.5171,-0.5167,-0.5212,-0.5227,-0.5281,-0.5254,-0.5267,-0.5307,-0.5254,-0.5289,-0.5274,-0.5272,-0.5305,-0.5312,-0.529,-0.5271,-0.5331,-0.5338,-0.5334,-0.5228,-0.5226,-0.5224,-0.5237,-0.5237,-0.5236,0,0,-0.518,-0.5197,-0.5233,-0.5218,-0.5243,-0.5253,-0.5259,-0.5261,-0.5262,-0.5261,-0.5251,-0.5245,-0.5259,-0.5257,-0.526,-0.528,-0.5191,-0.5307,-0.5317,-0.5326,-0.5326,-0.5224,-0.5223,-0.5234,-0.5234,-0.5234,0,0,-0.518,-0.5223,-0.5225,-0.5223,-0.5244,-0.5256,-0.5259,-0.5258,-0.5258,-0.5248,-0.5226,-0.5221,-0.524,-0.5222,-0.5199,-0.5257,-0.5213,-0.5217,-0.5273,-0.5285,-0.5295,-0.5296,-0.5168,0,0,0,0,0,-0.5228,-0.5224,-0.5226,-0.5227,-0.5235,-0.5259,-0.5262,-0.5257,-0.524,-0.5251,-0.5238,-0.5213,-0.5216,-0.5195,-0.5191,-0.523,-0.5209,-0.5214,-0.5218,-0.5295,-0.5308,-0.5319,0,0,0,0,0,0,-0.5228,-0.5229,-0.5226,-0.5236,-0.5238,-0.5258,-0.5238,-0.5237,-0.5239,-0.5237,-0.5218,-0.5212,-0.5199,-0.5195,-0.5192,-0.523,-0.5168,-0.5211,-0.5215,-0.5218,-0.53,-0.531,-0.5319,0,0,0,0,0,-0.5228,-0.5229,-0.5239,-0.5236,-0.5238,-0.5236,-0.5237,-0.5236,-0.5237,-0.5219,-0.5214,-0.5232,-0.52,-0.5195,-0.5193,-0.5233,-0.517,-0.5169,-0.5214,-0.5217,-0.5219,-0.5305,0,0,0,0,0,0,-0.5228,-0.5233,-0.5239,-0.524,-0.5226,-0.5236,-0.5236,-0.5235,-0.5219,-0.5215,-0.5232,-0.523,-0.5201,-0.5197,-0.5194,-0.5236,-0.5172,-0.5171,-0.517,-0.5216,-0.5218,-0.522,0,0,0,0,0,0,-0.5233,-0.5234,-0.524,-0.5227,-0.5226,-0.5235,-0.5235,-0.5227,-0.5217,-0.5232,-0.523,-0.5231,-0.5191,-0.5198,-0.5196,-0.5186,-0.5173,-0.5172,-0.5171,-0.5171,-0.5218,-0.522,0,0,0,0,0,0,-0.5234,-0.5235,-0.5227,-0.5226,-0.5226,-0.5237,-0.5227,-0.5226,-0.5234,-0.5232,-0.5231,-0.523,-0.5191,-0.5189,-0.5197,-0.5189,-0.5187,-0.5173,-0.5172,-0.5172,-0.5172,0,0,0,0,0,0,0,-0.5234,-0.5225,-0.5232,-0.5226,-0.5225,-0.5248,-0.5249,-0.5249,-0.5234,-0.5233,-0.5231,-0.523,-0.5179,-0.5178,-0.5176,-0.5191,0,0,-0.5173,-0.5173,0,0,0,0,0,0,0,0,-0.5225,-0.5225,-0.5232,-0.5233,-0.5233,-0.5249,-0.5249,-0.5249,-0.5233,-0.5233,-0.5232,-0.5231,-0.5178,-0.5177,-0.5177,0,0,0,0,0,0,0,0,0,0,0,0,0,0,0,-0.5232,-0.5233,0,-0.5249,-0.5249,-0.5249,-0.5233,-0.5233,-0.5232,-0.5231,-0.5178,-0.5177,-0.5177,0,0,0,0,0,0,0,0,0,0,0,0,0,0,0,0,0,0,0,0,0,0,0,0,0,0,0,0,0,0,0,0,0,0,0,0,0,0,0,0,0,0,0,0,0,0,0,0,0,0,0,0,0,0,0,0,0,0,0,0,0,0,0,0,0,0,0,0,0]}],[{"header":{"parameterUnit":"kt","parameterCategory":2,"dx":1,"dy":1,"la1":30.253999710083008,"la2":30.299108505249023,"lo1":-89.0895004272461,"lo2":-89.04439544677734,"nx":28,"ny":28,"refTime":"2022-10-22T21:00:00:Z","depth":"0","parameterNumber":3,"parameterNumberName":"V-component_of_CURRENTS"},"data":[-0.1327,-0.1527,-0.1648,-0.1785,-0.185,-0.1804,-0.1726,-0.1555,-0.1246,-0.0614,0.0001,0.0532,0.1567,0.2957,0.3757,0.3798,0.4084,0.3997,0.4156,0.3743,0.3678,0.3615,0.3671,0.4243,0.4244,0.4818,0.4824,0.4828,-0.1288,-0.1458,-0.1622,-0.1759,-0.1805,-0.1792,-0.1681,-0.157,-0.1357,-0.0975,-0.0631,0.0376,0.1165,0.1883,0.2739,0.3048,0.3101,0.3177,0.3258,0.3348,0.2684,0.2711,0.3089,0.3088,0.3088,0.3088,0.3087,0.3087,-0.1232,-0.1365,-0.1522,-0.1652,-0.1701,-0.1683,-0.165,-0.1518,-0.1348,-0.0993,-0.0731,-0.0239,0.0581,0.1362,0.1631,0.2252,0.2123,0.241,0.2487,0.2479,0.2656,0.1821,0.2106,0.2105,0.2104,0.2103,0.2102,0,-0.1165,-0.1234,-0.1354,-0.1505,-0.1549,-0.1562,-0.1506,-0.1443,-0.1194,-0.1016,-0.0693,-0.0429,0.0183,0.0741,0.1257,0.1471,0.184,0.1697,0.1989,0.2247,0.2246,0.2434,0.1572,0.1799,0.1796,0.1794,0.1792,0.1791,-0.1042,-0.1138,-0.1273,-0.1339,-0.1367,-0.1389,-0.1367,-0.1211,-0.111,-0.0786,-0.069,-0.0323,-0.0019,0.0548,0.0958,0.1344,0.1518,0.1616,0.161,0.1848,0.1987,0.2,0.2119,0.1758,0.1762,0.1766,0.1768,0,-0.0979,-0.1019,-0.1148,-0.1185,-0.1186,-0.1227,-0.1138,-0.1084,-0.0905,-0.0738,-0.0666,-0.0307,0.0024,0.0348,0.0727,0.0908,0.137,0.1291,0.1299,0.137,0.1792,0.1869,0.2221,0.2392,0.1514,0.1517,0.152,0,-0.0855,-0.0936,-0.098,-0.105,-0.1106,-0.1027,-0.1001,-0.0906,-0.072,-0.0607,-0.037,-0.0209,0.0125,0.0375,0.0571,0.089,0.089,0.1091,0.1164,0.1216,0.1225,0.1555,0.1646,0.1097,0.1095,0.1094,0.1093,0,-0.074,-0.0807,-0.0907,-0.0921,-0.0904,-0.0893,-0.0848,-0.0676,-0.0598,-0.0386,-0.0283,-0.0052,0.01,0.0304,0.0575,0.0556,0.0886,0.0913,0.1095,0.1099,0.1262,0.1277,0.1646,0.1092,0.1091,0.1091,0.1091,0,-0.0621,-0.0678,-0.0787,-0.0799,-0.0793,-0.0791,-0.0678,-0.0625,-0.0417,-0.0314,-0.0155,0.0008,0.0185,0.0247,0.0527,0.0462,0.0601,0.0735,0.0746,0.0869,0.0932,0.1119,0.1202,0.1491,0.0867,0.0865,0.0863,0,-0.0542,-0.0635,-0.0581,-0.065,-0.0691,-0.0571,-0.0525,-0.0425,-0.0302,-0.0183,-0.0005,0.0113,0.0175,0.0251,0.0358,0.0545,0.0626,0.0534,0.0822,0.083,0.0874,0.0922,0.1009,0.1159,0.0836,0.0839,0.0841,0,-0.0453,-0.0467,-0.0473,-0.0508,-0.0434,-0.041,-0.0362,-0.0276,-0.0225,-0.0111,-0.0024,0.0117,0.0213,0.0289,0.04,0.0504,0.0585,0.0562,0.0572,0.0598,0.0806,0.0875,0.09,0.0662,0.0665,0.0667,0.082,0,-0.0382,-0.0413,-0.0414,-0.039,-0.0351,-0.035,-0.0252,-0.0199,-0.0124,-0.0044,0.0073,0.0209,0.0335,0.0385,0.0439,0.0539,0.0559,0.0622,0.0665,0.0666,0.0732,0.0748,0.0592,0.0594,0.0596,0.0597,0,0,-0.0315,-0.0332,-0.024,-0.0249,-0.0234,-0.012,-0.0142,-0.007,0.0027,0.0073,0.0102,0.03,0.039,0.0501,0.05,0.0553,0.0612,0.0558,0.0659,0.0665,0.0671,0.0733,0.0746,0.06,0.0601,0.0602,0.0602,0,-0.0265,-0.023,-0.0245,-0.0211,-0.0149,-0.0086,-0.0084,0.0008,0.0058,0.0109,0.0198,0.0287,0.0401,0.0496,0.0557,0.0567,0.0658,0.0597,0.0549,0.067,0.0674,0.0678,0.0738,0.0749,0.0607,0.0606,0.0606,0,-0.0204,-0.016,-0.0162,-0.0104,-0.0052,-0.004,0.0045,0.0085,0.0102,0.0217,0.0262,0.0347,0.0464,0.053,0.0567,0.0592,0.0705,0.0665,0.0659,0.0652,0.078,0.0784,0.0787,0.0746,0.0746,0.0746,0,0,-0.0166,-0.0156,-0.0085,-0.0089,-0.0066,0.0022,0.0056,0.0101,0.0175,0.0207,0.0286,0.0377,0.0456,0.0504,0.0578,0.0641,0.0711,0.0675,0.0669,0.0663,0.0652,0.0778,0.0781,0.0745,0.0745,0.0745,0,0,-0.0138,-0.007,-0.0057,-0.0058,-0.0002,0.0103,0.012,0.0168,0.0236,0.0239,0.0344,0.0369,0.0428,0.0501,0.0477,0.0604,0.0641,0.0647,0.054,0.0533,0.0527,0.0491,0.0558,0,0,0,0,0,-0.0065,-0.0082,-0.0072,-0.0064,0.0019,0.0086,0.0104,0.0178,0.0205,0.0216,0.0288,0.0347,0.0515,0.0496,0.0519,0.0537,0.0735,0.0737,0.0738,0.0616,0.0608,0.0601,0,0,0,0,0,0,-0.0061,-0.0053,-0.007,0.0024,0.0045,0.0087,0.0142,0.0164,0.0205,0.0214,0.0331,0.0351,0.0422,0.049,0.051,0.0525,0.0551,0.0735,0.0737,0.0738,0.0613,0.0606,0.0601,0,0,0,0,0,-0.0058,-0.0051,0.0048,0.0028,0.0045,0.0141,0.0143,0.0161,0.0199,0.0308,0.0329,0.025,0.042,0.0442,0.0502,0.0514,0.0538,0.0545,0.0736,0.0738,0.0739,0.061,0,0,0,0,0,0,-0.0055,-0.0015,0.0055,0.0066,0.0026,0.0142,0.0157,0.0158,0.0293,0.0313,0.0231,0.0236,0.0419,0.0436,0.0453,0.0505,0.0528,0.0535,0.0539,0.0737,0.0738,0.0739,0,0,0,0,0,0,-0.0018,-0.0008,0.0061,0.0053,0.0064,0.0141,0.0155,0.0226,0.0294,0.0211,0.0218,0.0232,0.0394,0.0432,0.0445,0.0554,0.052,0.0526,0.0531,0.0534,0.0738,0.0739,0,0,0,0,0,0,-0.0011,-0.0002,0.0052,0.006,0.0069,0.0196,0.0209,0.0291,0.0278,0.0204,0.028,0.028,0.0388,0.0403,0.044,0.0543,0.0551,0.052,0.0524,0.0528,0.053,0,0,0,0,0,0,0,-0.0005,-0.01,-0.0012,0.0065,0.0073,0.0162,0.0165,0.0168,0.0279,0.0279,0.028,0.028,0.048,0.0488,0.0496,0.0533,0,0,0.0519,0.0522,0,0,0,0,0,0,0,0,-0.0101,-0.0101,-0.0012,-0.001,-0.0008,0.0162,0.0165,0.0168,0.0279,0.0279,0.0279,0.028,0.0482,0.0489,0.0495,0,0,0,0,0,0,0,0,0,0,0,0,0,0,0,-0.0012,-0.001,0,0.0163,0.0165,0.0167,0.0279,0.0279,0.0279,0.028,0.0484,0.0489,0.0494,0,0,0,0,0,0,0,0,0,0,0,0,0,0,0,0,0,0,0,0,0,0,0,0,0,0,0,0,0,0,0,0,0,0,0,0,0,0,0,0,0,0,0,0,0,0,0,0,0,0,0,0,0,0,0,0,0,0,0,0,0,0,0,0,0,0,0,0,0]}]],[[{"header":{"parameterUnit":"kt","parameterCategory":2,"dx":1,"dy":1,"la1":30.253999710083008,"la2":30.299108505249023,"lo1":-89.0895004272461,"lo2":-89.04439544677734,"nx":28,"ny":28,"refTime":"2022-10-22T21:00:00:Z","depth":"2","parameterNumber":2,"parameterNumberName":"U-component_of_CURRENTS"},"data":[-0.3798,-0.3594,-0.3484,-0.3187,-0.315,-0.2916,-0.2799,-0.261,-0.2494,-0.219,-0.2057,-0.2201,-0.2321,-0.1904,-0.1859,-0.1671,-0.1898,-0.1584,-0.238,-0.2419,-0.2476,-0.2676,-0.2761,0,0,0,0,0,-0.3933,-0.3857,-0.3763,-0.3658,-0.3546,-0.3675,-0.3632,-0.3462,-0.3264,-0.3219,-0.309,-0.2689,-0.2492,-0.2485,-0.2204,-0.2197,-0.2189,-0.2127,-0.2113,-0.2179,-0.2239,-0.2248,-0.1583,-0.1581,-0.1579,-0.1576,0,0,-0.417,-0.4095,-0.4031,-0.3953,-0.4005,-0.3967,-0.3866,-0.3943,-0.3878,-0.3742,-0.3857,-0.3596,-0.3558,-0.3078,-0.2917,-0.2804,-0.3047,-0.2933,-0.2958,-0.299,-0.3032,-0.3018,-0.258,-0.2584,-0.2588,-0.2591,-0.2594,0,-0.4328,-0.4316,-0.4297,-0.427,-0.4307,-0.4332,-0.4405,-0.4383,-0.4522,-0.4503,-0.4387,-0.4292,-0.406,-0.3702,-0.3518,-0.3374,-0.3526,-0.3328,-0.3895,-0.3388,-0.3372,-0.3335,-0.3386,-0.3,-0.3007,-0.3012,-0.3016,-0.3019,-0.443,-0.4454,-0.4513,-0.4521,-0.458,-0.4648,-0.4683,-0.4845,-0.485,-0.4876,-0.4796,-0.4694,-0.4538,-0.4232,-0.4081,-0.386,-0.4051,-0.3488,-0.358,-0.414,-0.4096,-0.4124,-0.415,-0.3092,-0.3083,-0.3075,-0.3069,0,-0.4463,-0.4586,-0.4639,-0.4775,-0.4821,-0.4829,-0.4943,-0.4956,-0.5067,-0.5007,-0.5012,-0.5013,-0.4831,-0.476,-0.4544,-0.4468,-0.4282,-0.4189,-0.3893,-0.3795,-0.4165,-0.4185,-0.3898,-0.3893,-0.3888,-0.3884,-0.3881,0,-0.4584,-0.4641,-0.4793,-0.4819,-0.486,-0.5014,-0.5042,-0.5111,-0.5177,-0.5139,-0.524,-0.5151,-0.5112,-0.4962,-0.4879,-0.4617,-0.4623,-0.4513,-0.4438,-0.4194,-0.4166,-0.4635,-0.4646,-0.4572,-0.4575,-0.4577,-0.4579,0,-0.4612,-0.4762,-0.4825,-0.487,-0.5023,-0.5071,-0.5136,-0.5225,-0.525,-0.5297,-0.5272,-0.5243,-0.5167,-0.5067,-0.4951,-0.5001,-0.4706,-0.4737,-0.4539,-0.4528,-0.4168,-0.4132,-0.4582,-0.4583,-0.4584,-0.4585,-0.4586,0,-0.4699,-0.4778,-0.4869,-0.4993,-0.5022,-0.5083,-0.5166,-0.5235,-0.5289,-0.5312,-0.531,-0.5295,-0.5268,-0.5277,-0.5099,-0.5174,-0.506,-0.4982,-0.4966,-0.4845,-0.4792,-0.4219,-0.4077,-0.4742,-0.4745,-0.4748,-0.475,0,-0.4691,-0.48,-0.4876,-0.4962,-0.503,-0.5104,-0.5179,-0.5248,-0.529,-0.53,-0.5307,-0.5311,-0.534,-0.5324,-0.5295,-0.5202,-0.5128,-0.5265,-0.4918,-0.4907,-0.4827,-0.4789,-0.4475,-0.4141,-0.4786,-0.4782,-0.4779,0,-0.4679,-0.4827,-0.4826,-0.489,-0.5006,-0.503,-0.5129,-0.5201,-0.5226,-0.5267,-0.5268,-0.5339,-0.5299,-0.5304,-0.5298,-0.5262,-0.5175,-0.5215,-0.5208,-0.5059,-0.492,-0.4844,-0.4811,-0.5155,-0.5153,-0.5152,-0.4808,0,-0.4755,-0.4808,-0.4825,-0.4939,-0.4981,-0.5011,-0.5089,-0.5129,-0.5155,-0.5179,-0.5205,-0.5208,-0.5201,-0.5231,-0.5245,-0.524,-0.516,-0.5157,-0.5101,-0.5136,-0.4977,-0.4956,-0.5183,-0.5181,-0.518,-0.5178,0,0,-0.4732,-0.4782,-0.4827,-0.4894,-0.4923,-0.4951,-0.5,-0.5041,-0.5075,-0.5089,-0.5087,-0.5098,-0.5112,-0.5141,-0.5189,-0.5182,-0.5085,-0.517,-0.5138,-0.5134,-0.513,-0.4982,-0.4963,-0.5176,-0.5175,-0.5174,-0.5174,0,-0.4755,-0.4777,-0.4822,-0.4864,-0.4919,-0.4943,-0.4955,-0.4988,-0.5013,-0.5057,-0.5045,-0.5057,-0.5076,-0.5088,-0.5095,-0.5158,-0.505,-0.5163,-0.5213,-0.5128,-0.5126,-0.5124,-0.4979,-0.4963,-0.517,-0.517,-0.517,0,-0.4777,-0.4819,-0.4826,-0.4881,-0.4897,-0.4946,-0.4925,-0.4944,-0.499,-0.4947,-0.4995,-0.4985,-0.4982,-0.5022,-0.5033,-0.501,-0.4994,-0.505,-0.5058,-0.5047,-0.4954,-0.4954,-0.4954,-0.495,-0.4949,-0.4949,0,0,-0.4814,-0.4846,-0.4886,-0.4886,-0.4907,-0.4921,-0.4929,-0.4941,-0.4948,-0.4953,-0.4953,-0.4953,-0.4969,-0.4975,-0.4978,-0.5003,-0.4914,-0.5026,-0.5037,-0.5045,-0.504,-0.4951,-0.4951,-0.4947,-0.4947,-0.4947,0,0,-0.4809,-0.4864,-0.4881,-0.4889,-0.4917,-0.4924,-0.4927,-0.4933,-0.4945,-0.4942,-0.4927,-0.4926,-0.4957,-0.4937,-0.4918,-0.4974,-0.4927,-0.493,-0.4997,-0.501,-0.502,-0.5015,-0.4886,0,0,0,0,0,-0.4862,-0.4863,-0.4879,-0.4883,-0.4902,-0.4923,-0.4925,-0.4929,-0.4918,-0.4934,-0.4934,-0.4911,-0.4933,-0.4916,-0.4913,-0.4951,-0.4926,-0.493,-0.4933,-0.5024,-0.5037,-0.5049,0,0,0,0,0,0,-0.4863,-0.4868,-0.4878,-0.4885,-0.4889,-0.4922,-0.4907,-0.4908,-0.4918,-0.4918,-0.4912,-0.491,-0.4901,-0.4915,-0.4913,-0.4951,-0.4887,-0.4927,-0.493,-0.4933,-0.5029,-0.504,-0.5049,0,0,0,0,0,-0.4864,-0.4868,-0.49,-0.4884,-0.4888,-0.4896,-0.4907,-0.4908,-0.4917,-0.4906,-0.4904,-0.4921,-0.4901,-0.4898,-0.4914,-0.4953,-0.4888,-0.4887,-0.4929,-0.4932,-0.4934,-0.5034,0,0,0,0,0,0,-0.4865,-0.4868,-0.4901,-0.4901,-0.4883,-0.4895,-0.4898,-0.4908,-0.4904,-0.4903,-0.4913,-0.4913,-0.4901,-0.4899,-0.4897,-0.4957,-0.4889,-0.4888,-0.4888,-0.4931,-0.4933,-0.4935,0,0,0,0,0,0,-0.4866,-0.4869,-0.4901,-0.4899,-0.49,-0.4894,-0.4897,-0.4889,-0.4903,-0.4911,-0.4911,-0.4913,-0.4896,-0.49,-0.4898,-0.4887,-0.489,-0.4889,-0.4889,-0.4889,-0.4933,-0.4935,0,0,0,0,0,0,-0.4867,-0.487,-0.4899,-0.4899,-0.49,-0.4911,-0.4886,-0.4901,-0.4916,-0.491,-0.4916,-0.4916,-0.4896,-0.4895,-0.4899,-0.4888,-0.4887,-0.489,-0.489,-0.4889,-0.4889,0,0,0,0,0,0,0,-0.4868,-0.4852,-0.4895,-0.49,-0.49,-0.491,-0.491,-0.491,-0.4916,-0.4916,-0.4916,-0.4916,-0.4894,-0.4893,-0.4893,-0.4889,0,0,-0.489,-0.489,0,0,0,0,0,0,0,0,-0.485,-0.4851,-0.4895,-0.4895,-0.4895,-0.491,-0.491,-0.491,-0.4916,-0.4916,-0.4916,-0.4916,-0.4894,-0.4893,-0.4893,0,0,0,0,0,0,0,0,0,0,0,0,0,0,0,-0.4895,-0.4895,0,-0.491,-0.491,-0.491,-0.4916,-0.4916,-0.4916,-0.4916,-0.4894,-0.4893,-0.4893,0,0,0,0,0,0,0,0,0,0,0,0,0,0,0,0,0,0,0,0,0,0,0,0,0,0,0,0,0,0,0,0,0,0,0,0,0,0,0,0,0,0,0,0,0,0,0,0,0,0,0,0,0,0,0,0,0,0,0,0,0,0,0,0,0,0,0,0,0]}],[{"header":{"parameterUnit":"kt","parameterCategory":2,"dx":1,"dy":1,"la1":30.253999710083008,"la2":30.299108505249023,"lo1":-89.0895004272461,"lo2":-89.04439544677734,"nx":28,"ny":28,"refTime":"2022-10-22T21:00:00:Z","depth":"2","parameterNumber":3,"parameterNumberName":"V-component_of_CURRENTS"},"data":[-0.1553,-0.1767,-0.1896,-0.202,-0.2071,-0.2038,-0.1974,-0.1822,-0.1567,-0.1241,-0.0898,-0.0443,0.0123,0.0443,0.0784,0.1027,0.1017,0.1023,0.1088,0.0858,0.0851,0.1095,0.1005,0,0,0,0,0,-0.1511,-0.1666,-0.1827,-0.1966,-0.2015,-0.1993,-0.1903,-0.1809,-0.1613,-0.1287,-0.0956,-0.0444,0.0085,0.054,0.1027,0.1328,0.1265,0.1336,0.1185,0.118,0.1176,0.1124,0.1223,0.1224,0.1225,0.1225,0,0,-0.144,-0.1569,-0.173,-0.186,-0.19,-0.1889,-0.1865,-0.1739,-0.1586,-0.1258,-0.1002,-0.0567,-0.0122,0.0616,0.0947,0.1242,0.1247,0.1285,0.1277,0.127,0.1229,0.1147,0.1352,0.1353,0.1354,0.1355,0.1356,0,-0.1384,-0.1451,-0.1569,-0.1712,-0.175,-0.1761,-0.1706,-0.1659,-0.1421,-0.125,-0.0937,-0.0678,-0.0092,0.0358,0.0862,0.1052,0.1123,0.121,0.1234,0.1005,0.0911,0.0953,0.0938,0.1083,0.1083,0.1083,0.1083,0.1083,-0.1279,-0.1367,-0.149,-0.1548,-0.1567,-0.1581,-0.1563,-0.1412,-0.132,-0.1005,-0.0919,-0.0553,-0.0254,0.0315,0.0695,0.1075,0.1072,0.1188,0.1159,0.1088,0.1137,0.1116,0.1097,0.108,0.108,0.1081,0.1081,0,-0.1222,-0.1255,-0.1366,-0.1393,-0.1391,-0.1427,-0.1337,-0.1289,-0.1112,-0.0955,-0.0884,-0.0531,-0.0197,0.0127,0.051,0.0692,0.0975,0.1076,0.0887,0.0937,0.1087,0.1071,0.1286,0.129,0.1293,0.1296,0.1298,0,-0.1101,-0.1166,-0.12,-0.1262,-0.1315,-0.1229,-0.1203,-0.1111,-0.0932,-0.0826,-0.0585,-0.0433,-0.0093,0.0155,0.0357,0.0677,0.0682,0.0879,0.0952,0.0836,0.083,0.0843,0.0836,0.0896,0.0894,0.0893,0.0892,0,-0.0982,-0.1034,-0.1129,-0.1138,-0.1112,-0.11,-0.1053,-0.0886,-0.0814,-0.0603,-0.0503,-0.0273,-0.012,0.0088,0.0363,0.0346,0.0676,0.0706,0.0885,0.0888,0.0884,0.0884,0.0891,0.0891,0.089,0.089,0.0889,0,-0.0862,-0.0911,-0.1013,-0.101,-0.1004,-0.0999,-0.089,-0.0838,-0.0636,-0.0534,-0.0374,-0.0214,-0.0036,0.0031,0.0314,0.0249,0.0394,0.0526,0.0538,0.065,0.0714,0.0727,0.0768,0.066,0.0658,0.0656,0.0654,0,-0.078,-0.0867,-0.0809,-0.0866,-0.0902,-0.078,-0.0739,-0.0639,-0.0517,-0.04,-0.0224,-0.0108,-0.0042,0.0033,0.0145,0.033,0.0415,0.0322,0.0611,0.0618,0.066,0.0708,0.0601,0.0733,0.0627,0.063,0.0632,0,-0.069,-0.0694,-0.0696,-0.0722,-0.0644,-0.0622,-0.0576,-0.0491,-0.0442,-0.0325,-0.024,-0.0102,-0.0002,0.007,0.0179,0.0284,0.0373,0.0345,0.0355,0.0384,0.0599,0.0661,0.0685,0.0454,0.0457,0.0459,0.0611,0,-0.0617,-0.0632,-0.0635,-0.0605,-0.0565,-0.0563,-0.0465,-0.0413,-0.0334,-0.0253,-0.0139,-0.0004,0.0121,0.0167,0.0222,0.032,0.0338,0.0402,0.0448,0.0448,0.0513,0.0529,0.0367,0.0369,0.0371,0.0372,0,0,-0.0544,-0.0554,-0.046,-0.0468,-0.0449,-0.0333,-0.0354,-0.0285,-0.0184,-0.0138,-0.0104,0.0087,0.0178,0.0281,0.0281,0.0332,0.039,0.0336,0.0439,0.0445,0.0452,0.0513,0.0526,0.0375,0.0376,0.0376,0.0377,0,-0.0497,-0.0453,-0.0465,-0.0428,-0.0363,-0.0301,-0.0297,-0.0205,-0.0154,-0.0101,-0.0011,0.0079,0.0188,0.028,0.0338,0.0345,0.0435,0.0371,0.0324,0.0449,0.0453,0.0458,0.0517,0.0528,0.0381,0.0381,0.0381,0,-0.0436,-0.0388,-0.0384,-0.0321,-0.0269,-0.0256,-0.0171,-0.013,-0.0112,0.0005,0.0053,0.0137,0.0248,0.0312,0.0348,0.0374,0.0482,0.0441,0.0435,0.0426,0.0558,0.0562,0.0566,0.052,0.0519,0.0519,0,0,-0.0401,-0.0384,-0.0309,-0.0306,-0.0282,-0.0194,-0.016,-0.0113,-0.0038,-0.0005,0.0076,0.0166,0.0241,0.029,0.0361,0.0421,0.0491,0.0452,0.0445,0.0439,0.0427,0.0556,0.056,0.0519,0.0519,0.0519,0,0,-0.0377,-0.03,-0.0279,-0.0273,-0.0216,-0.0115,-0.0098,-0.0048,0.0022,0.0028,0.0133,0.0158,0.0218,0.0288,0.0268,0.0386,0.0421,0.0427,0.0327,0.032,0.0314,0.0277,0.0346,0,0,0,0,0,-0.0299,-0.0313,-0.0295,-0.0284,-0.0197,-0.0134,-0.0116,-0.004,-0.0009,0.0001,0.0077,0.0135,0.0303,0.0286,0.0309,0.0325,0.0511,0.0512,0.0514,0.04,0.0392,0.0385,0,0,0,0,0,0,-0.0294,-0.0284,-0.0293,-0.0202,-0.0181,-0.0133,-0.0075,-0.0054,-0.0009,0.0001,0.0118,0.0138,0.0208,0.0281,0.03,0.0313,0.034,0.0512,0.0513,0.0514,0.0397,0.039,0.0385,0,0,0,0,0,-0.029,-0.0281,-0.0171,-0.0199,-0.0181,-0.0081,-0.0075,-0.0056,-0.0016,0.0093,0.0115,0.0038,0.0206,0.0228,0.0293,0.0302,0.0327,0.0334,0.0512,0.0513,0.0514,0.0394,0,0,0,0,0,0,-0.0287,-0.0252,-0.0165,-0.0154,-0.0196,-0.0081,-0.0065,-0.0059,0.0076,0.0096,0.0017,0.0023,0.0204,0.0222,0.0239,0.0294,0.0317,0.0324,0.0328,0.0513,0.0514,0.0514,0,0,0,0,0,0,-0.0255,-0.0244,-0.0159,-0.016,-0.0149,-0.0081,-0.0067,0.0,0.0077,-0.0006,0.0002,0.0018,0.0184,0.0218,0.0231,0.0334,0.0309,0.0316,0.032,0.0323,0.0514,0.0514,0,0,0,0,0,0,-0.0248,-0.0238,-0.0162,-0.0154,-0.0144,-0.0019,-0.0018,0.0071,0.0062,-0.0013,0.0064,0.0065,0.0178,0.0193,0.0225,0.0322,0.0331,0.0309,0.0314,0.0317,0.0319,0,0,0,0,0,0,0,-0.0242,-0.034,-0.0229,-0.0148,-0.014,-0.0058,-0.0055,-0.0052,0.0062,0.0063,0.0064,0.0065,0.0271,0.0278,0.0286,0.0312,0,0,0.0309,0.0312,0,0,0,0,0,0,0,0,-0.0341,-0.0341,-0.0229,-0.0227,-0.0225,-0.0058,-0.0055,-0.0053,0.0062,0.0063,0.0064,0.0065,0.0273,0.0279,0.0285,0,0,0,0,0,0,0,0,0,0,0,0,0,0,0,-0.0228,-0.0227,0,-0.0057,-0.0055,-0.0053,0.0062,0.0063,0.0064,0.0064,0.0275,0.0279,0.0284,0,0,0,0,0,0,0,0,0,0,0,0,0,0,0,0,0,0,0,0,0,0,0,0,0,0,0,0,0,0,0,0,0,0,0,0,0,0,0,0,0,0,0,0,0,0,0,0,0,0,0,0,0,0,0,0,0,0,0,0,0,0,0,0,0,0,0,0,0]}]],[[{"header":{"parameterUnit":"kt","parameterCategory":2,"dx":1,"dy":1,"la1":30.253999710083008,"la2":30.299108505249023,"lo1":-89.0895004272461,"lo2":-89.04439544677734,"nx":28,"ny":28,"refTime":"2022-10-22T21:00:00:Z","depth":"4","parameterNumber":2,"parameterNumberName":"U-component_of_CURRENTS"},"data":[-0.0881,-0.0966,-0.1065,-0.1039,-0.1078,-0.1156,-0.1308,-0.1524,-0.1554,-0.186,-0.1918,-0.2144,-0.2236,-0.2385,-0.2338,-0.2364,-0.241,-0.2632,-0.2625,-0.2832,-0.286,-0.2885,-0.2858,0,0,0,0,0,-0.0968,-0.0988,-0.1154,-0.133,-0.1454,-0.1535,-0.1758,-0.1938,-0.2203,-0.2148,-0.2332,-0.2354,-0.2411,-0.2527,-0.2424,-0.2635,-0.2731,-0.2502,-0.2664,-0.2849,-0.288,-0.2844,0,0,0,0,0,0,-0.1099,-0.1157,-0.1418,-0.1592,-0.1744,-0.1789,-0.1965,-0.2071,-0.2189,-0.2484,-0.2487,-0.2668,-0.2857,-0.2821,-0.2817,-0.278,-0.2759,-0.2692,-0.273,-0.276,-0.2702,-0.264,-0.229,0,0,0,0,0,-0.1232,-0.1412,-0.1585,-0.1819,-0.1986,-0.2124,-0.2296,-0.2338,-0.2611,-0.2817,-0.2859,-0.2911,-0.291,-0.2972,-0.2958,-0.2956,-0.3188,-0.3084,-0.31,-0.3143,-0.3128,-0.3086,-0.3105,-0.2998,-0.3001,-0.3004,-0.3005,0,-0.1419,-0.1514,-0.1919,-0.2032,-0.2189,-0.24,-0.2499,-0.2791,-0.2858,-0.3103,-0.3077,-0.3196,-0.3298,-0.3138,-0.3268,-0.3237,-0.3228,-0.3164,-0.3209,-0.3179,-0.3126,-0.3138,-0.3149,-0.303,-0.3028,-0.3026,-0.3024,0,-0.1534,-0.175,-0.1953,-0.2302,-0.2389,-0.2508,-0.2802,-0.2876,-0.3105,-0.3194,-0.3257,-0.3459,-0.3478,-0.3558,-0.3574,-0.3499,-0.3435,-0.3365,-0.3651,-0.36,-0.3193,-0.3194,-0.3071,-0.3062,-0.3054,-0.3048,-0.3043,0,-0.1776,-0.1868,-0.2204,-0.2289,-0.2443,-0.2689,-0.2851,-0.3014,-0.3209,-0.3276,-0.3494,-0.3547,-0.3694,-0.3701,-0.3726,-0.3596,-0.3705,-0.35,-0.3432,-0.3709,-0.3707,-0.3666,-0.366,-0.3726,-0.3727,-0.3727,-0.3728,0,-0.1875,-0.2112,-0.2255,-0.2347,-0.264,-0.2762,-0.2911,-0.3121,-0.3216,-0.3424,-0.3482,-0.364,-0.3695,-0.3726,-0.3752,-0.377,-0.3735,-0.3721,-0.3489,-0.3471,-0.3668,-0.3661,-0.3729,-0.3729,-0.3729,-0.3729,-0.3729,0,-0.2029,-0.2144,-0.2318,-0.2569,-0.2628,-0.2755,-0.2979,-0.3105,-0.3284,-0.3386,-0.3535,-0.3597,-0.3734,-0.3739,-0.3793,-0.3802,-0.3783,-0.3765,-0.3759,-0.3508,-0.3408,-0.3576,-0.3646,-0.3646,-0.3646,-0.3646,-0.3646,0,-0.2074,-0.2212,-0.2348,-0.2517,-0.2625,-0.2805,-0.2926,-0.3091,-0.3215,-0.3344,-0.3445,-0.3551,-0.3622,-0.3692,-0.3743,-0.3737,-0.3762,-0.3778,-0.3648,-0.3644,-0.3427,-0.3437,-0.3731,-0.3646,-0.3646,-0.3646,-0.3646,0,-0.2088,-0.2321,-0.2329,-0.2437,-0.2633,-0.2705,-0.2865,-0.3023,-0.3108,-0.3283,-0.3388,-0.3527,-0.3596,-0.3627,-0.3685,-0.3719,-0.3753,-0.3694,-0.369,-0.3657,-0.3701,-0.3464,-0.3441,-0.3725,-0.3726,-0.3727,-0.3646,0,-0.2218,-0.233,-0.2347,-0.2472,-0.2587,-0.2667,-0.2809,-0.294,-0.3048,-0.3135,-0.3287,-0.3377,-0.3486,-0.3515,-0.3544,-0.3634,-0.3595,-0.3559,-0.3535,-0.3595,-0.3547,-0.3548,-0.3513,-0.3511,-0.351,-0.3509,0,0,-0.2204,-0.2277,-0.2356,-0.2422,-0.2518,-0.2624,-0.2718,-0.2804,-0.2989,-0.3061,-0.3084,-0.3273,-0.3329,-0.3431,-0.348,-0.3489,-0.3464,-0.3527,-0.3565,-0.3572,-0.3578,-0.3536,-0.3539,-0.3506,-0.3505,-0.3505,-0.3504,0,-0.2182,-0.2282,-0.2327,-0.2413,-0.254,-0.2607,-0.2648,-0.2789,-0.2873,-0.3023,-0.3067,-0.3171,-0.329,-0.3342,-0.3362,-0.3463,-0.3425,-0.3472,-0.3572,-0.3552,-0.3561,-0.3568,-0.353,-0.3533,-0.35,-0.3501,-0.3501,0,-0.2194,-0.2242,-0.2287,-0.2406,-0.2475,-0.2567,-0.2602,-0.2703,-0.2793,-0.2848,-0.3028,-0.308,-0.3114,-0.3224,-0.328,-0.3271,-0.3391,-0.3383,-0.3391,-0.341,-0.3386,-0.3397,-0.3406,-0.3285,-0.3284,-0.3284,0,0,-0.2177,-0.2227,-0.2341,-0.2405,-0.2456,-0.2559,-0.2632,-0.2699,-0.2787,-0.2844,-0.2952,-0.3033,-0.3082,-0.3153,-0.3204,-0.3323,-0.3291,-0.336,-0.337,-0.3379,-0.3402,-0.3382,-0.3392,-0.3282,-0.3282,-0.3282,0,0,-0.2144,-0.224,-0.2303,-0.2392,-0.2483,-0.2557,-0.2632,-0.27,-0.282,-0.2849,-0.2913,-0.294,-0.3059,-0.3086,-0.306,-0.3204,-0.3156,-0.3164,-0.3216,-0.3229,-0.3239,-0.3252,-0.3045,0,0,0,0,0,-0.2162,-0.2218,-0.2276,-0.2305,-0.2456,-0.2532,-0.256,-0.2666,-0.2705,-0.2759,-0.2855,-0.2861,-0.3072,-0.3052,-0.3075,-0.3132,-0.3262,-0.3265,-0.3269,-0.3359,-0.3373,-0.3384,0,0,0,0,0,0,-0.2173,-0.2198,-0.2275,-0.2342,-0.2381,-0.2529,-0.2552,-0.2581,-0.2702,-0.2713,-0.2843,-0.2862,-0.2893,-0.3041,-0.3062,-0.3116,-0.3038,-0.3263,-0.3266,-0.3269,-0.3364,-0.3375,-0.3384,0,0,0,0,0,-0.2182,-0.2203,-0.2412,-0.2345,-0.2378,-0.2529,-0.2551,-0.2576,-0.2679,-0.2764,-0.2788,-0.2764,-0.289,-0.2915,-0.3054,-0.3106,-0.3023,-0.3031,-0.3265,-0.3268,-0.327,-0.3369,0,0,0,0,0,0,-0.2189,-0.2225,-0.2422,-0.2439,-0.2345,-0.2526,-0.2551,-0.2571,-0.2724,-0.275,-0.2679,-0.2686,-0.2889,-0.2908,-0.2927,-0.3101,-0.3012,-0.302,-0.3024,-0.3267,-0.3269,-0.3271,0,0,0,0,0,0,-0.2216,-0.2237,-0.243,-0.2424,-0.2441,-0.2522,-0.2545,-0.2622,-0.2723,-0.2629,-0.264,-0.268,-0.2862,-0.2903,-0.2918,-0.3036,-0.3003,-0.301,-0.3016,-0.3019,-0.3269,-0.327,0,0,0,0,0,0,-0.2228,-0.2246,-0.242,-0.2433,-0.2447,-0.2639,-0.2594,-0.2741,-0.2732,-0.2619,-0.2734,-0.2735,-0.2856,-0.2873,-0.2912,-0.3023,-0.3033,-0.3003,-0.3008,-0.3012,-0.3014,0,0,0,0,0,0,0,-0.2238,-0.2074,-0.2331,-0.244,-0.2453,-0.2597,-0.2601,-0.2604,-0.2732,-0.2733,-0.2734,-0.2734,-0.296,-0.2968,-0.2977,-0.3012,0,0,-0.3002,-0.3006,0,0,0,0,0,0,0,0,-0.207,-0.2073,-0.2332,-0.2336,-0.234,-0.2598,-0.2601,-0.2604,-0.2732,-0.2733,-0.2733,-0.2734,-0.2962,-0.2969,-0.2976,0,0,0,0,0,0,0,0,0,0,0,0,0,0,0,-0.2332,-0.2335,0,-0.2598,-0.2601,-0.2603,-0.2732,-0.2733,-0.2733,-0.2734,-0.2964,-0.297,-0.2975,0,0,0,0,0,0,0,0,0,0,0,0,0,0,0,0,0,0,0,0,0,0,0,0,0,0,0,0,0,0,0,0,0,0,0,0,0,0,0,0,0,0,0,0,0,0,0,0,0,0,0,0,0,0,0,0,0,0,0,0,0,0,0,0,0,0,0,0,0]}],[{"header":{"parameterUnit":"kt","parameterCategory":2,"dx":1,"dy":1,"la1":30.253999710083008,"la2":30.299108505249023,"lo1":-89.0895004272461,"lo2":-89.04439544677734,"nx":28,"ny":28,"refTime":"2022-10-22T21:00:00:Z","depth":"4","parameterNumber":3,"parameterNumberName":"V-component_of_CURRENTS"},"data":[-0.1335,-0.142,-0.1455,-0.155,-0.1614,-0.1702,-0.1717,-0.1667,-0.1541,-0.1417,-0.114,-0.0993,-0.0511,-0.0671,-0.0038,0.0042,0.0126,0.0582,0.0586,0.0716,0.0714,0.0713,0.0533,0,0,0,0,0,-0.1331,-0.1379,-0.1471,-0.1558,-0.1653,-0.1705,-0.1733,-0.1722,-0.1634,-0.1447,-0.1358,-0.1013,-0.0531,-0.0311,-0.0037,0.0031,0.0398,0.035,0.0448,0.0715,0.0713,0.0539,0,0,0,0,0,0,-0.1332,-0.1375,-0.1436,-0.1526,-0.1627,-0.1676,-0.1699,-0.1619,-0.1581,-0.1387,-0.128,-0.0905,-0.0666,-0.0242,0.007,0.0345,0.0391,0.0438,0.045,0.0452,0.0274,0.0146,0.0286,0,0,0,0,0,-0.1299,-0.1343,-0.1377,-0.1487,-0.1561,-0.1624,-0.1655,-0.1647,-0.156,-0.1517,-0.1247,-0.0966,-0.0607,-0.0211,0.0121,0.0421,0.0557,0.0669,0.0669,0.0581,0.0514,0.0537,0.0518,0.0706,0.0705,0.0705,0.0705,0,-0.1261,-0.1292,-0.1367,-0.1423,-0.1443,-0.1509,-0.1542,-0.1512,-0.1497,-0.1337,-0.1283,-0.0988,-0.0784,-0.0236,0.0061,0.049,0.0535,0.0663,0.0569,0.0508,0.0537,0.0517,0.0497,0.0704,0.0704,0.0704,0.0704,0,-0.1237,-0.124,-0.1297,-0.1315,-0.1341,-0.1392,-0.1421,-0.1432,-0.137,-0.1307,-0.1265,-0.1011,-0.0693,-0.0383,0.002,0.0164,0.045,0.0548,0.0428,0.0466,0.0505,0.0486,0.0701,0.0702,0.0702,0.0702,0.0703,0,-0.1183,-0.1216,-0.1216,-0.1234,-0.1304,-0.1265,-0.1318,-0.1286,-0.1221,-0.1189,-0.1039,-0.0926,-0.0612,-0.0369,-0.0137,0.0165,0.0212,0.0338,0.0389,0.0284,0.0267,0.0358,0.0347,0.0427,0.0425,0.0423,0.0421,0,-0.1127,-0.1125,-0.1167,-0.1164,-0.1146,-0.1174,-0.1174,-0.1124,-0.1121,-0.1012,-0.097,-0.077,-0.0643,-0.0417,-0.014,-0.0163,0.02,0.0199,0.0324,0.0324,0.0342,0.0335,0.0419,0.0419,0.0418,0.0417,0.0417,0,-0.1046,-0.1048,-0.1082,-0.1074,-0.107,-0.109,-0.1081,-0.1075,-0.0986,-0.0941,-0.0832,-0.0726,-0.0564,-0.0501,-0.0203,-0.0282,-0.0116,0.0016,0.0029,0.0049,0.0072,0.0152,0.0185,0.0182,0.0179,0.0176,0.0174,0,-0.099,-0.1008,-0.0967,-0.0991,-0.0986,-0.0933,-0.0935,-0.0905,-0.086,-0.0809,-0.0684,-0.0626,-0.0551,-0.0503,-0.0392,-0.0235,-0.0125,-0.0247,0.0069,0.0079,0.0032,0.0058,-0.0125,0.0134,0.0139,0.0142,0.0145,0,-0.093,-0.0879,-0.0873,-0.0879,-0.0831,-0.0829,-0.082,-0.0793,-0.079,-0.0711,-0.0678,-0.0589,-0.0515,-0.0463,-0.0383,-0.0282,-0.0177,-0.0219,-0.021,-0.0124,0.0063,0.0017,0.0037,-0.0141,-0.0137,-0.0135,0.0118,0,-0.083,-0.0817,-0.0819,-0.0803,-0.0787,-0.0783,-0.0727,-0.0712,-0.0676,-0.0639,-0.0583,-0.0487,-0.0406,-0.0384,-0.0339,-0.0264,-0.0218,-0.0195,-0.0137,-0.0145,-0.0034,-0.0013,-0.0229,-0.0227,-0.0225,-0.0224,0,0,-0.0774,-0.077,-0.0722,-0.072,-0.0706,-0.0636,-0.0644,-0.0614,-0.0557,-0.0544,-0.0513,-0.0396,-0.0339,-0.0279,-0.0283,-0.0259,-0.0179,-0.0227,-0.0155,-0.0149,-0.0142,-0.0036,-0.0018,-0.0221,-0.022,-0.022,-0.0219,0,-0.0734,-0.0704,-0.0721,-0.0694,-0.0647,-0.0611,-0.0609,-0.0546,-0.0526,-0.0505,-0.0441,-0.0388,-0.0321,-0.0259,-0.0222,-0.0241,-0.0136,-0.0227,-0.0248,-0.0145,-0.014,-0.0136,-0.0032,-0.0017,-0.0215,-0.0215,-0.0215,0,-0.0684,-0.0658,-0.0661,-0.0619,-0.0582,-0.0567,-0.0509,-0.0486,-0.0485,-0.0396,-0.0376,-0.0323,-0.0245,-0.0214,-0.0193,-0.0162,-0.0077,-0.0131,-0.0139,-0.0119,-0.0007,-0.0004,-0.0,-0.0041,-0.0041,-0.0041,0,0,-0.0662,-0.0669,-0.0603,-0.0605,-0.058,-0.0523,-0.0502,-0.0472,-0.0424,-0.0407,-0.0349,-0.0286,-0.0243,-0.0207,-0.0164,-0.0131,-0.0045,-0.0116,-0.0124,-0.0131,-0.0116,-0.0008,-0.0004,-0.0041,-0.0041,-0.0041,0,0,-0.0645,-0.0593,-0.0574,-0.0563,-0.0529,-0.0461,-0.0451,-0.0422,-0.0385,-0.0377,-0.0299,-0.028,-0.0253,-0.0194,-0.0202,-0.0137,-0.0096,-0.0093,-0.0187,-0.0196,-0.0204,-0.02,-0.0131,0,0,0,0,0,-0.0595,-0.0602,-0.0586,-0.0575,-0.051,-0.0475,-0.0465,-0.041,-0.0386,-0.0392,-0.0337,-0.0287,-0.0178,-0.0184,-0.0169,-0.017,-0.0039,-0.0039,-0.004,-0.0153,-0.0164,-0.0172,0,0,0,0,0,0,-0.0591,-0.058,-0.0585,-0.0519,-0.0503,-0.0474,-0.0423,-0.0409,-0.0384,-0.0378,-0.03,-0.0284,-0.0229,-0.0187,-0.0174,-0.0177,-0.0135,-0.0039,-0.004,-0.004,-0.0157,-0.0165,-0.0172,0,0,0,0,0,-0.0587,-0.0578,-0.049,-0.0518,-0.0504,-0.0431,-0.0422,-0.041,-0.0396,-0.0307,-0.0291,-0.0355,-0.0231,-0.0216,-0.0179,-0.0185,-0.0143,-0.0139,-0.0039,-0.004,-0.004,-0.0161,0,0,0,0,0,0,-0.0583,-0.0572,-0.0486,-0.0479,-0.0509,-0.0431,-0.042,-0.0412,-0.0326,-0.0311,-0.0357,-0.0353,-0.0233,-0.022,-0.0209,-0.0191,-0.015,-0.0146,-0.0143,-0.004,-0.004,-0.004,0,0,0,0,0,0,-0.0575,-0.0567,-0.0482,-0.0474,-0.0466,-0.0432,-0.0422,-0.0379,-0.0325,-0.0382,-0.0375,-0.0356,-0.0236,-0.0224,-0.0214,-0.0151,-0.0155,-0.0151,-0.0148,-0.0146,-0.004,-0.004,0,0,0,0,0,0,-0.057,-0.0563,-0.0476,-0.047,-0.0462,-0.0381,-0.0392,-0.0323,-0.0335,-0.0387,-0.0332,-0.033,-0.024,-0.023,-0.0219,-0.016,-0.0153,-0.0155,-0.0152,-0.015,-0.0149,0,0,0,0,0,0,0,-0.0566,-0.0635,-0.0523,-0.0466,-0.046,-0.041,-0.0408,-0.0407,-0.0335,-0.0333,-0.0332,-0.0331,-0.018,-0.0176,-0.0171,-0.0167,0,0,-0.0156,-0.0154,0,0,0,0,0,0,0,0,-0.0636,-0.0635,-0.0523,-0.0521,-0.0519,-0.041,-0.0408,-0.0407,-0.0334,-0.0333,-0.0332,-0.0331,-0.0179,-0.0175,-0.0171,0,0,0,0,0,0,0,0,0,0,0,0,0,0,0,-0.0523,-0.0521,0,-0.0409,-0.0409,-0.0408,-0.0334,-0.0333,-0.0332,-0.0332,-0.0178,-0.0175,-0.0172,0,0,0,0,0,0,0,0,0,0,0,0,0,0,0,0,0,0,0,0,0,0,0,0,0,0,0,0,0,0,0,0,0,0,0,0,0,0,0,0,0,0,0,0,0,0,0,0,0,0,0,0,0,0,0,0,0,0,0,0,0,0,0,0,0,0,0,0,0]}]]]